Weather History for Ellington Field, TX

Change the Weather History Date:

Saturday, December 28, 2013

  Actual Average Record
Temperature  
Mean Temperature 56 °F -  
Max Temperature 66 °F 62 °F 78 °F (1996)
Min Temperature 46 °F 43 °F 32 °F (1997)
Degree Days  
Heating Degree Days 9    
Growing Degree Days 6 (Base 50)    
Moisture  
Dew Point 36 °F    
Average Humidity 54    
Maximum Humidity 76    
Minimum Humidity 37    
Precipitation  
Precipitation 0.00 in - - ()
Sea Level Pressure  
Sea Level Pressure 30.18 in    
Wind  
Wind Speed 2 mph (NNE)    
Max Wind Speed 6 mph    
Max Gust Speed -    
Visibility 10 miles    
Events      
Averages and records for this station are not official NWS values.
T = Trace of Precipitation, MM = Missing Value Source: NWS Daily Summary

Daily Weather History Graph

Daily Weather History Graph

Search for Another Location

Airport:

Trip Planner

Search our weather history database for the weather conditions in past years. The results will help you decide how hot, cold, wet, or windy it might be!

Date:

Astronomy

Dec. 28, 2013 Rise Set
Actual Time 7:14 AM CST 5:30 PM CST
Civil Twilight 6:48 AM CST 5:56 PM CST
Nautical Twilight 6:18 AM CST 6:26 PM CST
Astronomical Twilight 5:49 AM CST 6:55 PM CST
Moon 3:02 AM CST (12/28) 2:13 PM CST (12/28)
Length of Visible Light 11h 08m
Length of Day
10h 15m
Waning Crescent, 19% of the Moon is Illuminated
Dec 28
Waning Crescent
Jan 1
New
Jan 7
First Quarter
Jan 15
Full
Jan 23
Last Quarter

Hourly Weather History & Observations

Time (CST) Temp. Dew Point Humidity Pressure Visibility Wind Dir Wind Speed Gust Speed Precip Events Conditions
12:50 AM 50.0 °F 33.8 °F 54% 30.31 in 10.0 mi NNE 4.6 mph - N/A   Mostly Cloudy
1:50 AM 50.0 °F 33.8 °F 54% 30.29 in 10.0 mi North 4.6 mph - N/A   Overcast
2:50 AM 50.0 °F 33.8 °F 54% 30.28 in 10.0 mi Calm Calm - N/A   Mostly Cloudy
3:50 AM 50.0 °F 33.8 °F 54% 30.27 in 10.0 mi NNE 3.5 mph - N/A   Overcast
4:50 AM 50.0 °F 33.8 °F 54% 30.24 in 10.0 mi NE 5.8 mph - N/A   Overcast
5:50 AM 48.2 °F 33.8 °F 58% 30.25 in 10.0 mi Calm Calm - N/A   Mostly Cloudy
6:50 AM 48.2 °F 33.8 °F 58% 30.23 in 10.0 mi NE 4.6 mph - N/A   Mostly Cloudy
7:50 AM 48.2 °F 33.8 °F 58% 30.24 in 10.0 mi Calm Calm - N/A   Overcast
8:50 AM 50.0 °F 35.6 °F 58% 30.26 in 10.0 mi North 3.5 mph - N/A   Overcast
9:50 AM 51.8 °F 35.6 °F 54% 30.26 in 10.0 mi NNE 3.5 mph - N/A   Overcast
10:50 AM 55.4 °F 37.4 °F 51% 30.24 in 10.0 mi Calm Calm - N/A   Overcast
11:50 AM 57.2 °F 37.4 °F 48% 30.21 in 10.0 mi Calm Calm - N/A   Overcast
12:50 PM 57.2 °F 37.4 °F 48% 30.18 in 10.0 mi Calm Calm - N/A   Overcast
1:50 PM 59.0 °F 39.2 °F 48% 30.12 in 10.0 mi Variable 3.5 mph - N/A   Mostly Cloudy
2:50 PM 60.8 °F 39.2 °F 45% 30.20 in 10.0 mi Calm Calm - N/A   Mostly Cloudy
3:50 PM 62.6 °F 39.2 °F 42% 30.09 in 10.0 mi Calm Calm - N/A   Mostly Cloudy
4:50 PM 66.2 °F 39.2 °F 37% 30.08 in 10.0 mi Calm Calm - N/A   Scattered Clouds
5:50 PM 60.8 °F 35.6 °F 39% 30.07 in 10.0 mi East 3.5 mph - N/A   Scattered Clouds
6:50 PM 53.6 °F 35.6 °F 51% 30.08 in 10.0 mi Calm Calm - N/A   Scattered Clouds
7:50 PM 50.0 °F 35.6 °F 58% 30.07 in 10.0 mi Calm Calm - N/A   Scattered Clouds
8:50 PM 48.2 °F 35.6 °F 62% 30.08 in 10.0 mi Calm Calm - N/A   Scattered Clouds
9:50 PM 48.2 °F 35.6 °F 62% 30.08 in 10.0 mi Calm Calm - N/A   Scattered Clouds
10:50 PM 46.4 °F 35.6 °F 66% 30.06 in 10.0 mi Calm Calm - N/A   Partly Cloudy
11:50 PM 46.4 °F 39.2 °F 76% 30.06 in 10.0 mi Calm Calm - N/A   Partly Cloudy